Location: �bnet
(46.9957°N, 8.4908°E)
Time: 07:59:06
(UTC+00:00)

Cosmos 2315 Rocket - Pass Details

Date: 11 May 2021
Orbit: 965 x 1002 km, 82.9° (Epoch: 14 June)

Event Time Altitude Azimuth Distance (km) Brightness Sun altitude
Rises 19:40:48 0° 170° (S) 3,708 6.6 -8.1°
Reaches altitude 10° 19:43:22 10° 165° (SSE) 2,765 5.9 -8.4°
Maximum altitude 19:49:29 52° 91° (E) 1,232 4.3 -9.3°
Drops below altitude 10° 19:55:39 10° 17° (NNE) 2,785 6.7 -10.1°
Sets 19:58:15 0° 13° (NNE) 3,737 7.5 -10.4°
